Flag for Canada Weather past 2 weeks in Labrador City, Newfoundland and Labrador, Canada

Now
64 °F

Broken clouds.


Feels Like: 64 °F
Forecast: 53 / 67 °F
Wind: 8 mph from Southwest

Location: Wabush Lake

Current Time: Aug 1, 2014 at 11:27:38 AM

Latest Report: Aug 1, 2014 at 11:00 AM


Visibility: 15 mi

Pressure: 30.06 "Hg

Humidity: 73%

Dew point: 55 °F

Location of Labrador CityLocation

Historic Weather in Labrador City — Graph

°F

Labrador City temperature yesterday

Maximum temperature yesterday: 72 °F (at 4:00 PM)
Minimum temperature yesterday: 50 °F (at 12:00 AM)
Average temperature yesterday: 61 °F

Past Weeks' High & Low Weather Summary

 TemperatureHumidityPressure
High82 °F (Jul 21, 5:00 PM)100% (Jul 18, 4:00 AM)30.19 "Hg (Jul 18, 4:00 AM)
Low43 °F (Jul 24, 5:00 AM)32% (Jul 20, 7:00 PM)29.31 "Hg (Jul 23, 10:00 AM)
Average60 °F75%29.85 "Hg
* Reported Jul 17 10:00 AM — Aug 1 10:00 AM, Labrador City, Weather by CustomWeather, © 2014

Note: Actual official high and low records may vary slightly from our data, if they occured in-between our weather recording intervals... More about our weather records

Advertising

Labrador City weather history for previous 24 hours

 ConditionsComfort  
Time TempWeatherWind HumidityBarometerVisibility
10:00 AM
Aug 1
61 °FPartly sunny.9 mph83%30.06 "Hg12 mi
9:00 AM61 °FPartly sunny.7 mph88%30.06 "Hg12 mi
8:00 AM57 °FFog.6 mph100%30.05 "Hg5 mi
7:50 AM57 °FFog.5 mph94%30.05 "Hg2 mi
7:00 AM55 °FFog.3 mph100%30.04 "Hg0 mi
6:00 AM54 °FFog.3 mph100%30.06 "Hg8 mi
5:00 AM55 °FSprinkles. Partly cloudy.No wind94%30.05 "Hg15 mi
3:00 AM55 °FSprinkles. Mostly cloudy.No wind100%30.06 "Hg15 mi
2:00 AM55 °FSprinkles. Overcast.No wind100%30.06 "Hg15 mi
1:00 AM57 °FSprinkles. Overcast.2 mph94%30.06 "Hg15 mi
12:00 AM57 °FSprinkles. Overcast.5 mph100%30.08 "Hg15 mi
11:00 PM
Jul 31
61 °FOvercast.5 mph83%30.08 "Hg15 mi
10:00 PM63 °FMostly cloudy.6 mph73%30.07 "Hg15 mi
9:00 PM63 °FPartly sunny.2 mph77%30.06 "Hg15 mi
8:00 PM66 °FBroken clouds.5 mph60%30.07 "Hg15 mi
7:00 PM68 °FBroken clouds.13 mph56%30.07 "Hg15 mi
6:00 PM70 °FBroken clouds.6 mph50%30.07 "Hg15 mi
5:00 PM72 °FBroken clouds.7 mph47%30.07 "Hg15 mi
4:00 PM72 °FScattered clouds.2 mph41%30.07 "Hg15 mi
3:00 PM70 °FScattered clouds.7 mph43%30.09 "Hg15 mi
2:00 PM70 °FBroken clouds.10 mph46%30.10 "Hg15 mi
1:00 PM68 °FScattered clouds.6 mph49%30.11 "Hg15 mi
12:00 PM70 °FPassing clouds.8 mph46%30.12 "Hg15 mi
11:00 AM66 °FPassing clouds.2 mph52%30.13 "Hg15 mi
Weather by CustomWeather, © 2014

See weather overviewHow to use our weather pages